| time (UTC) | temp F | wind direction | speed knots | gust knots | rain 1hr in | rain 24hr in | rain mn in | humidity % | barometer mb |
| 20260906173630 | 79 | 129 | 5.2 | 10.4 | 0.00 | 0.00 | 0.00 | 71 | 1019.4 |
| 20260906173433 | 80 | 144 | 4.3 | 8.7 | 0.00 | 0.00 | 0.00 | 71 | 1019.4 |
| 20260906172630 | 79 | 119 | 4.3 | 8.7 | 0.00 | 0.00 | 0.00 | 74 | 1019.4 |
| 20260906172431 | 79 | 86 | 4.3 | 7.8 | 0.00 | 0.00 | 0.00 | 73 | 1019.4 |
| 20260906171629 | 78 | 119 | 5.2 | 7.8 | 0.00 | 0.00 | 0.00 | 74 | 1019.4 |
| 20260906171130 | 78 | 92 | 4.3 | 7.8 | 0.00 | 0.00 | 0.00 | 74 | 1019.6 |
| 20260906170630 | 78 | 120 | 4.3 | 10.4 | 0.00 | 0.00 | 0.00 | 76 | 1019.7 |
| 20260906170129 | 77 | 188 | 6.1 | 10.4 | 0.00 | 0.00 | 0.00 | 75 | 1019.8 |
| 20260906165927 | 78 | 188 | 5.2 | 10.4 | 0.00 | 0.00 | 0.00 | 74 | 1019.7 |
| 20260906165128 | 78 | 159 | 4.3 | 10.4 | 0.00 | 0.00 | 0.00 | 75 | 1019.7 |
| 20260906164629 | 77 | 132 | 4.3 | 8.7 | 0.00 | 0.00 | 0.00 | 77 | 1019.7 |
| 20260906164424 | 77 | 109 | 3.5 | 8.7 | 0.00 | 0.00 | 0.00 | 77 | 1019.8 |
| 20260906163628 | 76 | 134 | 3.5 | 9.6 | 0.00 | 0.00 | 0.00 | 78 | 1019.8 |
| 20260906163127 | 76 | 108 | 3.5 | 9.6 | 0.00 | 0.00 | 0.00 | 78 | 1020.1 |
| 20260906162627 | 75 | 141 | 4.3 | 10.4 | 0.00 | 0.00 | 0.00 | 79 | 1020.1 |
| 20260906162126 | 75 | 92 | 5.2 | 10.4 | 0.00 | 0.00 | 0.00 | 79 | 1020.1 |
| 20260906161658 | 75 | 94 | 4.3 | 8.7 | 0.00 | 0.00 | 0.00 | 78 | 1020.1 |
| 20260906160912 | 75 | 116 | 3.5 | 8.7 | 0.00 | 0.00 | 0.00 | 79 | 1020.4 |
| 20260906160108 | 75 | 162 | 4.3 | 9.6 | 0.00 | 0.00 | 0.00 | 80 | 1020.4 |
| 20260906155606 | 75 | 190 | 5.2 | 10.4 | 0.00 | 0.00 | 0.00 | 80 | 1020.3 |
| 20260906155107 | 74 | 171 | 5.2 | 10.4 | 0.00 | 0.00 | 0.00 | 81 | 1020.2 |
| 20260906154606 | 74 | 118 | 4.3 | 9.6 | 0.00 | 0.00 | 0.00 | 82 | 1019.9 |
| 20260906154355 | 74 | 82 | 5.2 | 10.4 | 0.00 | 0.00 | 0.00 | 82 | 1020.1 |
| 20260906153608 | 74 | 155 | 5.2 | 11.3 | 0.00 | 0.00 | 0.00 | 82 | 1020.2 |
| 20260906153110 | 73 | 148 | 5.2 | 11.3 | 0.00 | 0.00 | 0.00 | 83 | 1020.3 |
| 20260906152607 | 73 | 147 | 4.3 | 10.4 | 0.00 | 0.00 | 0.00 | 84 | 1020.4 |
| 20260906152359 | 72 | 174 | 4.3 | 7.8 | 0.00 | 0.00 | 0.00 | 85 | 1020.5 |
| 20260906151606 | 72 | 115 | 4.3 | 7.8 | 0.00 | 0.00 | 0.00 | 85 | 1020.5 |
| 20260906151101 | 72 | 147 | 4.3 | 7.8 | 0.00 | 0.00 | 0.00 | 85 | 1020.4 |
| 20260906150601 | 72 | 116 | 4.3 | 9.6 | 0.00 | 0.00 | 0.00 | 85 | 1020.4 |
| 20260906145600 | 71 | 153 | 4.3 | 8.7 | 0.00 | 0.00 | 0.00 | 87 | 1020.2 |
| 20260906145102 | 71 | 132 | 4.3 | 7.0 | 0.00 | 0.00 | 0.00 | 88 | 1020.2 |
| 20260906144600 | 70 | 199 | 4.3 | 8.7 | 0.00 | 0.00 | 0.00 | 90 | 1020.3 |
| 20260906144101 | 70 | 128 | 4.3 | 8.7 | 0.00 | 0.00 | 0.00 | 89 | 1020.3 |
| 20260906143601 | 70 | 86 | 4.3 | 7.8 | 0.00 | 0.00 | 0.00 | 90 | 1020.3 |
| 20260906143101 | 69 | 98 | 3.5 | 8.7 | 0.00 | 0.00 | 0.00 | 91 | 1020.2 |
| 20260906142600 | 69 | 161 | 3.5 | 8.7 | 0.00 | 0.00 | 0.00 | 91 | 1020.3 |
| 20260906142359 | 69 | 117 | 3.5 | 7.0 | 0.00 | 0.00 | 0.00 | 92 | 1020.3 |
| 20260906141601 | 69 | 96 | 3.5 | 7.0 | 0.00 | 0.00 | 0.00 | 92 | 1020.3 |
| 20260906141101 | 68 | 143 | 2.6 | 7.0 | 0.00 | 0.00 | 0.00 | 92 | 1020.3 |
| 20260906140602 | 68 | 94 | 2.6 | 7.0 | 0.00 | 0.00 | 0.00 | 93 | 1020.3 |
| 20260906140357 | 68 | 96 | 2.6 | 7.0 | 0.00 | 0.00 | 0.00 | 93 | 1020.2 |
| 20260906135603 | 68 | 108 | 2.6 | 7.0 | 0.00 | 0.00 | 0.00 | 93 | 1020.2 |
| 20260906135102 | 68 | 167 | 3.5 | 10.4 | 0.00 | 0.00 | 0.00 | 93 | 1020.1 |
| 20260906134602 | 68 | 136 | 4.3 | 10.4 | 0.00 | 0.00 | 0.00 | 93 | 1020.1 |
| 20260906134101 | 68 | 138 | 3.5 | 7.8 | 0.00 | 0.00 | 0.00 | 93 | 1019.9 |
| 20260906133857 | 68 | 101 | 2.6 | 7.8 | 0.00 | 0.00 | 0.00 | 93 | 1019.8 |
| 20260906133101 | 68 | 163 | 3.5 | 7.8 | 0.00 | 0.00 | 0.00 | 93 | 1019.8 |
| 20260906132601 | 68 | 94 | 3.5 | 7.8 | 0.00 | 0.00 | 0.00 | 93 | 1019.9 |
| 20260906132102 | 68 | 111 | 3.5 | 7.8 | 0.00 | 0.00 | 0.00 | 93 | 1019.8 |
| 20260906131601 | 68 | 138 | 2.6 | 7.0 | 0.00 | 0.00 | 0.00 | 93 | 1019.8 |
| 20260906131102 | 68 | 95 | 2.6 | 6.1 | 0.00 | 0.00 | 0.00 | 94 | 1019.8 |
| 20260906130600 | 68 | 136 | 2.6 | 5.2 | 0.00 | 0.00 | 0.00 | 94 | 1019.8 |
| 20260906130353 | 67 | 97 | 2.6 | 5.2 | 0.00 | 0.00 | 0.00 | 94 | 1019.8 |
| 20260906125909 | 67 | 113 | 2.6 | 5.2 | 0.00 | 0.00 | 0.00 | 94 | 1019.6 |
| 20260906125102 | 67 | 104 | 1.7 | 3.5 | 0.00 | 0.00 | 0.00 | 94 | 1019.7 |
| 20260906124601 | 67 | 109 | 0.9 | 3.5 | 0.00 | 0.00 | 0.00 | 95 | 1019.7 |
| 20260906124102 | 67 | 105 | 0.9 | 1.7 | 0.00 | 0.00 | 0.00 | 95 | 1019.7 |
| 20260906123601 | 67 | 105 | 0.9 | 1.7 | 0.00 | 0.00 | 0.00 | 94 | 1019.7 |
| 20260906123101 | 67 | 106 | 0.9 | 3.5 | 0.00 | 0.00 | 0.00 | 94 | 1019.7 |
| 20260906122601 | 66 | 106 | 0.9 | 3.5 | 0.00 | 0.00 | 0.00 | 95 | 1019.7 |
| 20260906122101 | 66 | 109 | 0.9 | 3.5 | 0.00 | 0.00 | 0.00 | 94 | 1019.6 |
| 20260906121601 | 66 | 115 | 0.9 | 3.5 | 0.00 | 0.00 | 0.00 | 94 | 1019.4 |
| 20260906121355 | 66 | 146 | 0.9 | 2.6 | 0.00 | 0.00 | 0.00 | 94 | 1019.4 |
| 20260906120628 | 66 | 146 | 0.9 | 2.6 | 0.00 | 0.00 | 0.00 | 94 | 1019.3 |
| 20260906115603 | 66 | 97 | 0.9 | 1.7 | 0.00 | 0.00 | 0.00 | 94 | 1019.3 |
| 20260906115103 | 66 | 97 | 0.9 | 1.7 | 0.00 | 0.00 | 0.00 | 94 | 1019.2 |
| 20260906114852 | 66 | 97 | 0.9 | 1.7 | 0.00 | 0.00 | 0.00 | 94 | 1019.2 |
| 20260906114359 | 66 | 97 | 0.9 | 1.7 | 0.00 | 0.00 | 0.00 | 94 | 1019.2 |
| 20260906113602 | 66 | 97 | 0.9 | 1.7 | 0.00 | 0.00 | 0.00 | 94 | 1019.2 |
| 20260906113104 | 66 | 97 | 0.0 | 1.7 | 0.00 | 0.00 | 0.00 | 93 | 1019.2 |
| 20260906112603 | 66 | 97 | 0.0 | 1.7 | 0.00 | 0.00 | 0.00 | 93 | 1019.2 |
| 20260906112102 | 66 | 97 | 0.0 | 0.9 | 0.00 | 0.00 | 0.00 | 93 | 1019.1 |
| 20260906111852 | 67 | 97 | 0.0 | 0.9 | 0.00 | 0.00 | 0.00 | 93 | 1019.1 |
| 20260906111101 | 67 | 97 | 0.0 | 0.9 | 0.00 | 0.00 | 0.00 | 93 | 1019.1 |
| 20260906110604 | 67 | 97 | 0.0 | 0.9 | 0.00 | 0.00 | 0.00 | 93 | 1019.0 |
| 20260906105603 | 67 | 97 | 0.9 | 2.6 | 0.00 | 0.00 | 0.00 | 93 | 1019.0 |
| 20260906105101 | 67 | 97 | 0.0 | 2.6 | 0.00 | 0.00 | 0.00 | 93 | 1018.9 |
| 20260906104602 | 67 | 97 | 0.0 | 2.6 | 0.00 | 0.00 | 0.00 | 93 | 1018.8 |
| 20260906104102 | 67 | 97 | 0.0 | 2.6 | 0.00 | 0.00 | 0.00 | 93 | 1018.9 |
| 20260906103852 | 68 | 97 | 0.9 | 1.7 | 0.00 | 0.00 | 0.00 | 92 | 1018.8 |
| 20260906103104 | 68 | 97 | 0.9 | 1.7 | 0.00 | 0.00 | 0.00 | 92 | 1018.8 |
| 20260906102602 | 68 | 97 | 0.9 | 1.7 | 0.00 | 0.00 | 0.00 | 92 | 1018.7 |
| 20260906102100 | 68 | 97 | 0.9 | 2.6 | 0.00 | 0.00 | 0.00 | 92 | 1018.7 |
| 20260906101855 | 68 | 97 | 0.9 | 3.5 | 0.00 | 0.00 | 0.00 | 92 | 1018.7 |
| 20260906101100 | 68 | 96 | 0.9 | 3.5 | 0.00 | 0.00 | 0.00 | 92 | 1018.8 |
| 20260906100601 | 68 | 109 | 0.9 | 2.6 | 0.00 | 0.00 | 0.00 | 92 | 1018.6 |
| 20260906095859 | 69 | 80 | 0.0 | 1.7 | 0.00 | 0.00 | 0.00 | 92 | 1018.5 |
| 20260906095400 | 69 | 55 | 0.9 | 3.5 | 0.00 | 0.00 | 0.00 | 92 | 1018.5 |
| 20260906094938 | 69 | 121 | 0.9 | 3.5 | 0.00 | 0.00 | 0.00 | 92 | 1018.2 |
| 20260906093549 | 69 | 70 | 0.9 | 2.6 | 0.00 | 0.00 | 0.00 | 92 | 1018.3 |
| 20260906093049 | 69 | 110 | 1.7 | 6.1 | 0.00 | 0.00 | 0.00 | 92 | 1018.2 |
| 20260906092627 | 69 | 126 | 1.7 | 6.1 | 0.00 | 0.00 | 0.00 | 92 | 1018.2 |
| 20260906091550 | 69 | 154 | 0.9 | 3.5 | 0.00 | 0.00 | 0.00 | 93 | 1018.0 |
| 20260906091049 | 69 | 121 | 1.7 | 4.3 | 0.00 | 0.00 | 0.00 | 93 | 1018.1 |
| 20260906090848 | 69 | 142 | 1.7 | 5.2 | 0.00 | 0.00 | 0.00 | 93 | 1018.2 |
| 20260906090047 | 69 | 153 | 1.7 | 5.2 | 0.00 | 0.00 | 0.00 | 93 | 1018.2 |
| 20260906085846 | 69 | 177 | 1.7 | 3.5 | 0.00 | 0.00 | 0.00 | 93 | 1018.1 |
| 20260906085048 | 69 | 138 | 0.9 | 3.5 | 0.00 | 0.00 | 0.00 | 93 | 1018.0 |
| 20260906084546 | 69 | 125 | 0.9 | 3.5 | 0.00 | 0.00 | 0.00 | 93 | 1017.9 |
| 20260906084044 | 68 | 110 | 1.7 | 3.5 | 0.00 | 0.00 | 0.00 | 94 | 1018.0 |
| 20260906083543 | 68 | 140 | 1.7 | 2.6 | 0.00 | 0.00 | 0.00 | 94 | 1018.0 |
| 20260906083043 | 68 | 145 | 0.9 | 2.6 | 0.00 | 0.00 | 0.00 | 94 | 1018.0 |
| 20260906082538 | 68 | 134 | 0.0 | 0.9 | 0.00 | 0.00 | 0.00 | 93 | 1018.1 |
| 20260906082030 | 68 | 67 | 0.0 | 0.9 | 0.00 | 0.00 | 0.00 | 93 | 1018.2 |
| 20260906081529 | 68 | 67 | 0.0 | 0.9 | 0.00 | 0.00 | 0.00 | 93 | 1018.1 |
| 20260906081030 | 68 | 67 | 0.0 | 0.9 | 0.00 | 0.00 | 0.00 | 93 | 1018.0 |
| 20260906080530 | 68 | 67 | 0.0 | 0.9 | 0.00 | 0.00 | 0.00 | 93 | 1018.0 |
| 20260906080030 | 68 | 67 | 0.0 | 0.9 | 0.00 | 0.00 | 0.00 | 93 | 1018.0 |
| 20260906075824 | 68 | 67 | 0.0 | 0.9 | 0.00 | 0.00 | 0.00 | 93 | 1018.1 |
| 20260906075321 | 68 | 67 | 0.0 | 0.9 | 0.00 | 0.00 | 0.00 | 93 | 1018.1 |
| 20260906074530 | 68 | 67 | 0.9 | 2.6 | 0.00 | 0.00 | 0.00 | 93 | 1018.2 |
| 20260906074029 | 68 | 67 | 0.9 | 2.6 | 0.00 | 0.00 | 0.00 | 93 | 1018.1 |
| 20260906073825 | 68 | 93 | 0.9 | 1.7 | 0.00 | 0.00 | 0.00 | 93 | 1018.3 |
| 20260906073030 | 68 | 93 | 0.0 | 1.7 | 0.00 | 0.00 | 0.00 | 93 | 1018.3 |
| 20260906072529 | 68 | 63 | 0.9 | 1.7 | 0.00 | 0.00 | 0.00 | 93 | 1018.2 |
| 20260906072030 | 68 | 63 | 0.9 | 2.6 | 0.00 | 0.00 | 0.00 | 93 | 1018.2 |
| 20260906071531 | 68 | 71 | 0.9 | 2.6 | 0.00 | 0.00 | 0.00 | 93 | 1018.2 |
| 20260906071030 | 68 | 166 | 0.0 | 2.6 | 0.00 | 0.00 | 0.00 | 93 | 1018.4 |
| 20260906070606 | 68 | 166 | 0.0 | 2.6 | 0.00 | 0.00 | 0.00 | 93 | 1018.5 |
| 20260906065530 | 68 | 166 | 0.0 | 0.9 | 0.00 | 0.00 | 0.00 | 92 | 1018.5 |
| 20260906065029 | 68 | 166 | 0.0 | 0.9 | 0.00 | 0.00 | 0.00 | 92 | 1018.5 |
| 20260906064531 | 68 | 166 | 0.0 | 0.9 | 0.00 | 0.00 | 0.00 | 92 | 1018.5 |
| 20260906064029 | 68 | 166 | 0.0 | 0.9 | 0.00 | 0.00 | 0.00 | 92 | 1018.5 |
| 20260906063529 | 68 | 166 | 0.0 | 0.9 | 0.00 | 0.00 | 0.00 | 91 | 1018.5 |
| 20260906063029 | 68 | 166 | 0.0 | 0.9 | 0.00 | 0.00 | 0.00 | 91 | 1018.5 |
| 20260906062529 | 68 | 166 | 0.0 | 2.6 | 0.00 | 0.00 | 0.00 | 91 | 1018.4 |
| 20260906062030 | 68 | 166 | 0.0 | 2.6 | 0.00 | 0.00 | 0.00 | 91 | 1018.5 |
| 20260906061530 | 68 | 166 | 0.0 | 0.0 | 0.00 | 0.00 | 0.00 | 91 | 1018.7 |
| 20260906061029 | 68 | 166 | 0.0 | 0.0 | 0.00 | 0.00 | 0.00 | 90 | 1018.7 |
| 20260906060528 | 68 | 166 | 0.0 | 0.0 | 0.00 | 0.00 | 0.00 | 91 | 1018.6 |
| 20260906060029 | 69 | 166 | 0.0 | 0.0 | 0.00 | 0.00 | 0.00 | 91 | 1018.5 |
| 20260906055530 | 69 | 166 | 0.0 | 0.0 | 0.00 | 0.00 | 0.00 | 90 | 1018.6 |
| 20260906055029 | 69 | 166 | 0.0 | 0.0 | 0.00 | 0.00 | 0.00 | 90 | 1018.5 |
| 20260906054529 | 69 | 166 | 0.0 | 0.0 | 0.00 | 0.00 | 0.00 | 90 | 1018.5 |
| 20260906054030 | 69 | 166 | 0.0 | 0.0 | 0.00 | 0.00 | 0.00 | 90 | 1018.5 |
| 20260906053530 | 69 | 166 | 0.0 | 0.0 | 0.00 | 0.00 | 0.00 | 90 | 1018.6 |
| 20260906053029 | 69 | 166 | 0.0 | 0.0 | 0.00 | 0.00 | 0.00 | 91 | 1018.5 |
| 20260906052821 | 69 | 166 | 0.0 | 0.0 | 0.00 | 0.00 | 0.00 | 90 | 1018.6 |
| 20260906052029 | 69 | 165 | 0.0 | 0.0 | 0.00 | 0.00 | 0.00 | 90 | 1018.5 |
| 20260906051528 | 69 | 166 | 0.0 | 0.0 | 0.00 | 0.00 | 0.00 | 90 | 1018.5 |
| 20260906051030 | 69 | 166 | 0.0 | 0.0 | 0.00 | 0.00 | 0.00 | 90 | 1018.5 |
| 20260906050530 | 69 | 166 | 0.0 | 0.0 | 0.00 | 0.00 | 0.00 | 90 | 1018.4 |
| 20260906050029 | 69 | 166 | 0.0 | 0.0 | 0.00 | 0.00 | 0.00 | 90 | 1018.5 |
| 20260906045823 | 69 | 166 | 0.0 | 0.0 | 0.00 | 0.00 | 0.00 | 89 | 1018.5 |
| 20260906045028 | 69 | 166 | 0.0 | 0.0 | 0.00 | 0.00 | 0.00 | 89 | 1018.5 |
| 20260906044529 | 69 | 166 | 0.0 | 0.0 | 0.00 | 0.00 | 0.00 | 89 | 1018.5 |
| 20260906044030 | 69 | 166 | 0.0 | 0.0 | 0.00 | 0.00 | 0.00 | 89 | 1018.5 |
| 20260906043530 | 69 | 166 | 0.0 | 0.0 | 0.00 | 0.00 | 0.00 | 88 | 1018.6 |
| 20260906043030 | 69 | 166 | 0.0 | 0.0 | 0.00 | 0.00 | 0.00 | 88 | 1018.6 |
| 20260906042530 | 69 | 166 | 0.0 | 0.0 | 0.00 | 0.00 | 0.00 | 88 | 1018.6 |
| 20260906042321 | 69 | 166 | 0.0 | 0.0 | 0.00 | 0.00 | 0.00 | 88 | 1018.7 |
| 20260906041529 | 69 | 166 | 0.0 | 0.0 | 0.00 | 0.00 | 0.00 | 88 | 1018.6 |
| 20260906041031 | 69 | 166 | 0.0 | 0.0 | 0.00 | 0.00 | 0.00 | 88 | 1018.6 |
| 20260906040532 | 69 | 166 | 0.0 | 0.0 | 0.00 | 0.00 | 0.00 | 88 | 1018.6 |
| 20260906040032 | 69 | 166 | 0.0 | 0.0 | 0.00 | 0.00 | 0.00 | 88 | 1018.6 |
| 20260906035530 | 69 | 166 | 0.0 | 0.0 | 0.00 | 0.00 | 0.00 | 87 | 1018.6 |
| 20260906035029 | 70 | 166 | 0.0 | 0.0 | 0.00 | 0.00 | 0.00 | 87 | 1018.5 |
| 20260906034529 | 70 | 166 | 0.0 | 0.0 | 0.00 | 0.00 | 0.00 | 86 | 1018.4 |
| 20260906034320 | 70 | 166 | 0.0 | 0.0 | 0.00 | 0.00 | 0.00 | 86 | 1018.6 |
| 20260906033531 | 70 | 166 | 0.0 | 0.0 | 0.00 | 0.00 | 0.00 | 86 | 1018.7 |
| 20260906033030 | 70 | 166 | 0.0 | 0.0 | 0.00 | 0.00 | 0.00 | 86 | 1018.7 |
| 20260906032530 | 71 | 166 | 0.0 | 0.0 | 0.00 | 0.00 | 0.00 | 86 | 1018.7 |
| 20260906032317 | 71 | 166 | 0.0 | 0.0 | 0.00 | 0.00 | 0.00 | 86 | 1018.7 |
| 20260906031827 | 71 | 166 | 0.0 | 0.0 | 0.00 | 0.00 | 0.00 | 86 | 1018.7 |
| 20260906031318 | 71 | 246 | 0.0 | 0.0 | 0.00 | 0.00 | 0.00 | 86 | 1018.8 |
| 20260906030531 | 71 | 246 | 0.0 | 0.0 | 0.00 | 0.00 | 0.00 | 87 | 1018.8 |
| 20260906030029 | 71 | 246 | 0.0 | 0.0 | 0.00 | 0.00 | 0.00 | 87 | 1018.9 |
| 20260906025819 | 71 | 246 | 0.0 | 0.0 | 0.00 | 0.00 | 0.00 | 86 | 1018.9 |
| 20260906025030 | 71 | 246 | 0.0 | 0.0 | 0.00 | 0.00 | 0.00 | 86 | 1019.0 |
| 20260906024531 | 71 | 246 | 0.0 | 0.0 | 0.00 | 0.00 | 0.00 | 86 | 1019.0 |
| 20260906024031 | 72 | 246 | 0.0 | 0.0 | 0.00 | 0.00 | 0.00 | 85 | 1018.9 |
| 20260906023600 | 72 | 246 | 0.0 | 0.0 | 0.00 | 0.00 | 0.00 | 84 | 1018.7 |
| 20260906022529 | 72 | 246 | 0.0 | 0.0 | 0.00 | 0.00 | 0.00 | 83 | 1018.5 |
| 20260906022030 | 72 | 246 | 0.0 | 0.0 | 0.00 | 0.00 | 0.00 | 83 | 1018.4 |
| 20260906021530 | 73 | 246 | 0.0 | 0.0 | 0.00 | 0.00 | 0.00 | 82 | 1018.3 |
| 20260906021322 | 73 | 246 | 0.0 | 0.9 | 0.00 | 0.00 | 0.00 | 82 | 1018.0 |
| 20260906020820 | 73 | 246 | 0.0 | 0.9 | 0.00 | 0.00 | 0.00 | 81 | 1017.9 |
| 20260906020029 | 74 | 246 | 0.0 | 0.9 | 0.00 | 0.00 | 0.00 | 81 | 1017.7 |
| 20260906015530 | 74 | 246 | 0.0 | 0.9 | 0.00 | 0.00 | 0.00 | 78 | 1017.6 |
| 20260906015030 | 74 | 246 | 0.0 | 0.9 | 0.00 | 0.00 | 0.00 | 78 | 1017.4 |
| 20260906014530 | 75 | 246 | 0.0 | 0.9 | 0.00 | 0.00 | 0.00 | 78 | 1017.1 |
| 20260906014030 | 75 | 246 | 0.9 | 1.7 | 0.00 | 0.00 | 0.00 | 77 | 1017.1 |
| 20260906013828 | 75 | 246 | 0.0 | 1.7 | 0.00 | 0.00 | 0.00 | 77 | 1016.9 |
| 20260906013029 | 75 | 246 | 0.0 | 0.9 | 0.00 | 0.00 | 0.00 | 76 | 1017.0 |
| 20260906012529 | 76 | 246 | 0.0 | 0.9 | 0.00 | 0.00 | 0.00 | 76 | 1017.0 |
| 20260906012030 | 76 | 246 | 0.0 | 2.6 | 0.00 | 0.00 | 0.00 | 75 | 1016.8 |
| 20260906011529 | 76 | 246 | 0.9 | 3.5 | 0.00 | 0.00 | 0.00 | 75 | 1016.8 |
| 20260906011029 | 76 | 250 | 1.7 | 4.3 | 0.00 | 0.00 | 0.00 | 74 | 1016.6 |
| 20260906010529 | 77 | 163 | 1.7 | 4.3 | 0.00 | 0.00 | 0.00 | 73 | 1016.3 |
| 20260906010029 | 77 | 102 | 1.7 | 3.5 | 0.00 | 0.00 | 0.00 | 73 | 1015.9 |
| 20260906005529 | 78 | 113 | 1.7 | 3.5 | 0.00 | 0.00 | 0.00 | 72 | 1015.9 |
| 20260906005030 | 78 | 100 | 0.9 | 5.2 | 0.00 | 0.00 | 0.00 | 72 | 1016.0 |
| 20260906004529 | 78 | 146 | 1.7 | 5.2 | 0.00 | 0.00 | 0.00 | 72 | 1015.9 |
| 20260906004029 | 78 | 128 | 1.7 | 6.1 | 0.00 | 0.00 | 0.00 | 71 | 1016.0 |
| 20260906003529 | 79 | 143 | 1.7 | 6.1 | 0.00 | 0.00 | 0.00 | 71 | 1016.0 |
| 20260906003029 | 79 | 125 | 1.7 | 7.0 | 0.00 | 0.00 | 0.00 | 71 | 1016.0 |
| 20260906002528 | 79 | 140 | 2.6 | 7.0 | 0.00 | 0.00 | 0.00 | 71 | 1016.0 |
| 20260906002029 | 80 | 80 | 2.6 | 6.1 | 0.00 | 0.00 | 0.00 | 70 | 1016.1 |
| 20260906001530 | 80 | 77 | 2.6 | 6.1 | 0.00 | 0.00 | 0.00 | 70 | 1016.1 |
| 20260906001030 | 80 | 95 | 2.6 | 7.0 | 0.00 | 0.00 | 0.00 | 70 | 1016.0 |
| 20260906000530 | 81 | 120 | 1.7 | 7.0 | 0.00 | 0.00 | 0.00 | 69 | 1015.9 |
| 20260906000031 | 81 | 149 | 2.6 | 7.0 | 0.00 | 0.00 | 0.00 | 69 | 1016.0 |
| 20260905235531 | 81 | 112 | 3.5 | 7.0 | 0.00 | 0.00 | 0.00 | 69 | 1016.0 |
| 20260905235031 | 81 | 113 | 2.6 | 7.8 | 0.00 | 0.00 | 0.00 | 68 | 1016.0 |
| 20260905234825 | 82 | 101 | 2.6 | 7.8 | 0.00 | 0.00 | 0.00 | 68 | 1016.0 |
| 20260905234033 | 82 | 35 | 3.5 | 7.0 | 0.00 | 0.00 | 0.00 | 68 | 1015.8 |
| 20260905233532 | 82 | 63 | 3.5 | 11.3 | 0.00 | 0.00 | 0.00 | 67 | 1015.7 |
| 20260905233029 | 83 | 66 | 3.5 | 11.3 | 0.00 | 0.00 | 0.00 | 66 | 1015.6 |
| 20260905232534 | 83 | 69 | 3.5 | 9.6 | 0.00 | 0.00 | 0.00 | 66 | 1015.7 |
| 20260905232028 | 83 | 125 | 1.7 | 6.1 | 0.00 | 0.00 | 0.00 | 66 | 1015.7 |
| 20260905231530 | 84 | 138 | 2.6 | 6.1 | 0.00 | 0.00 | 0.00 | 66 | 1015.6 |
| 20260905231029 | 84 | 100 | 2.6 | 7.0 | 0.00 | 0.00 | 0.00 | 66 | 1015.6 |
| 20260905230528 | 84 | 93 | 3.5 | 9.6 | 0.00 | 0.00 | 0.00 | 65 | 1015.5 |
| 20260905230028 | 84 | 43 | 4.3 | 9.6 | 0.00 | 0.00 | 0.00 | 65 | 1015.5 |
| 20260905225529 | 84 | 82 | 4.3 | 9.6 | 0.00 | 0.00 | 0.00 | 65 | 1015.4 |
| 20260905225029 | 84 | 28 | 5.2 | 10.4 | 0.00 | 0.00 | 0.00 | 64 | 1015.5 |
| 20260905224528 | 84 | 26 | 5.2 | 10.4 | 0.00 | 0.00 | 0.00 | 64 | 1015.6 |
| 20260905224029 | 84 | 44 | 4.3 | 10.4 | 0.00 | 0.00 | 0.00 | 64 | 1015.7 |
| 20260905223529 | 84 | 36 | 4.3 | 8.7 | 0.00 | 0.00 | 0.00 | 63 | 1015.7 |
| 20260905223030 | 84 | 42 | 5.2 | 11.3 | 0.00 | 0.00 | 0.00 | 63 | 1015.8 |
| 20260905222529 | 84 | 86 | 5.2 | 11.3 | 0.00 | 0.00 | 0.00 | 63 | 1015.9 |
| 20260905222029 | 84 | 136 | 5.2 | 10.4 | 0.00 | 0.00 | 0.00 | 62 | 1016.0 |
| 20260905221827 | 84 | 58 | 3.5 | 10.4 | 0.00 | 0.00 | 0.00 | 63 | 1016.0 |
| 20260905221029 | 84 | 85 | 3.5 | 9.6 | 0.00 | 0.00 | 0.00 | 64 | 1016.0 |
| 20260905220529 | 84 | 113 | 4.3 | 10.4 | 0.00 | 0.00 | 0.00 | 64 | 1015.9 |
| 20260905220029 | 84 | 63 | 4.3 | 11.3 | 0.00 | 0.00 | 0.00 | 64 | 1015.8 |
| 20260905215529 | 84 | 56 | 5.2 | 11.3 | 0.00 | 0.00 | 0.00 | 64 | 1015.7 |
| 20260905215029 | 84 | 35 | 4.3 | 11.3 | 0.00 | 0.00 | 0.00 | 64 | 1015.7 |
| 20260905214530 | 84 | 103 | 4.3 | 11.3 | 0.00 | 0.00 | 0.00 | 65 | 1015.6 |
| 20260905214328 | 84 | 53 | 5.2 | 9.6 | 0.00 | 0.00 | 0.00 | 64 | 1015.7 |
| 20260905213533 | 84 | 65 | 4.3 | 8.7 | 0.00 | 0.00 | 0.00 | 65 | 1015.8 |
| 20260905213030 | 84 | 57 | 4.3 | 8.7 | 0.00 | 0.00 | 0.00 | 66 | 1016.0 |
| 20260905212528 | 84 | 73 | 4.3 | 8.7 | 0.00 | 0.00 | 0.00 | 66 | 1016.4 |
| 20260905212110 | 84 | 98 | 2.6 | 7.0 | 0.00 | 0.00 | 0.00 | 65 | 1016.5 |
| 20260905211030 | 83 | 95 | 3.5 | 8.7 | 0.00 | 0.00 | 0.00 | 67 | 1016.8 |
| 20260905210529 | 83 | 44 | 3.5 | 8.7 | 0.00 | 0.00 | 0.00 | 66 | 1016.8 |
| 20260905210322 | 83 | 16 | 3.5 | 7.0 | 0.00 | 0.00 | 0.00 | 66 | 1016.9 |
| 20260905205529 | 83 | 5 | 3.5 | 7.0 | 0.00 | 0.00 | 0.00 | 68 | 1016.9 |
| 20260905205029 | 83 | 40 | 3.5 | 8.7 | 0.00 | 0.00 | 0.00 | 68 | 1017.0 |
| 20260905204825 | 83 | 77 | 2.6 | 8.7 | 0.00 | 0.00 | 0.00 | 68 | 1017.0 |
| 20260905204030 | 83 | 27 | 2.6 | 6.1 | 0.00 | 0.00 | 0.00 | 68 | 1017.2 |
| 20260905203530 | 83 | 130 | 3.5 | 7.0 | 0.00 | 0.00 | 0.00 | 67 | 1017.2 |
| 20260905203029 | 82 | 38 | 3.5 | 7.0 | 0.00 | 0.00 | 0.00 | 69 | 1017.3 |
| 20260905202529 | 82 | 14 | 4.3 | 8.7 | 0.00 | 0.00 | 0.00 | 68 | 1017.4 |
| 20260905202031 | 82 | 19 | 3.5 | 8.7 | 0.00 | 0.00 | 0.00 | 68 | 1017.4 |
| 20260905201527 | 82 | 5 | 3.5 | 7.8 | 0.00 | 0.00 | 0.00 | 69 | 1017.4 |
| 20260905201027 | 82 | 53 | 3.5 | 7.8 | 0.00 | 0.00 | 0.00 | 68 | 1017.6 |
| 20260905200527 | 82 | 346 | 3.5 | 5.2 | 0.00 | 0.00 | 0.00 | 69 | 1017.6 |
| 20260905200026 | 82 | 68 | 2.6 | 7.0 | 0.00 | 0.00 | 0.00 | 70 | 1017.7 |
| 20260905195527 | 82 | 355 | 3.5 | 7.0 | 0.00 | 0.00 | 0.00 | 70 | 1017.7 |
| 20260905195031 | 82 | 355 | 3.5 | 7.0 | 0.00 | 0.00 | 0.00 | 70 | 1017.8 |
| 20260905194523 | 82 | 355 | 3.5 | 7.0 | 0.00 | 0.00 | 0.00 | 70 | 1017.9 |
| 20260905194322 | 82 | 12 | 2.6 | 7.0 | 0.00 | 0.00 | 0.00 | 70 | 1017.9 |
| 20260905193825 | 82 | 16 | 1.7 | 7.0 | 0.00 | 0.00 | 0.00 | 69 | 1017.9 |
| 20260905193020 | 82 | 72 | 1.7 | 6.1 | 0.00 | 0.00 | 0.00 | 69 | 1017.9 |
| 20260905192521 | 82 | 38 | 1.7 | 6.1 | 0.00 | 0.00 | 0.00 | 70 | 1018.0 |
| 20260905192021 | 82 | 28 | 1.7 | 5.2 | 0.00 | 0.00 | 0.00 | 70 | 1017.9 |
| 20260905191519 | 82 | 93 | 1.7 | 5.2 | 0.00 | 0.00 | 0.00 | 71 | 1017.9 |
| 20260905191019 | 81 | 140 | 0.9 | 5.2 | 0.00 | 0.00 | 0.00 | 71 | 1017.8 |
| 20260905190519 | 81 | 297 | 1.7 | 5.2 | 0.00 | 0.00 | 0.00 | 71 | 1017.7 |
| 20260905190017 | 81 | 61 | 2.6 | 5.2 | 0.00 | 0.00 | 0.00 | 71 | 1017.8 |
| 20260905185511 | 80 | 141 | 2.6 | 4.3 | 0.00 | 0.00 | 0.00 | 72 | 1017.9 |
| 20260905185011 | 80 | 53 | 2.6 | 5.2 | 0.00 | 0.00 | 0.00 | 73 | 1017.8 |
| 20260905184510 | 80 | 32 | 2.6 | 5.2 | 0.00 | 0.00 | 0.00 | 73 | 1017.8 |
| 20260905184008 | 80 | 55 | 1.7 | 4.3 | 0.00 | 0.00 | 0.00 | 74 | 1017.9 |
| 20260905183800 | 80 | 66 | 1.7 | 3.5 | 0.00 | 0.00 | 0.00 | 75 | 1018.0 |
| 20260905183008 | 79 | 169 | 1.7 | 3.5 | 0.00 | 0.00 | 0.00 | 76 | 1018.1 |
| 20260905182509 | 79 | 34 | 0.9 | 3.5 | 0.00 | 0.00 | 0.00 | 75 | 1018.2 |
| 20260905182008 | 79 | 224 | 0.9 | 2.6 | 0.00 | 0.00 | 0.00 | 75 | 1018.1 |
| 20260905181508 | 79 | 53 | 1.7 | 7.0 | 0.00 | 0.00 | 0.00 | 76 | 1018.1 |
| 20260905181008 | 78 | 140 | 2.6 | 7.8 | 0.00 | 0.00 | 0.00 | 76 | 1018.2 |
| 20260905180510 | 78 | 169 | 2.6 | 7.8 | 0.00 | 0.00 | 0.00 | 77 | 1018.3 |
| 20260905180008 | 78 | 15 | 2.6 | 7.0 | 0.00 | 0.00 | 0.00 | 78 | 1018.3 |
| 20260905175508 | 77 | 158 | 2.6 | 5.2 | 0.00 | 0.00 | 0.00 | 80 | 1018.2 |
| 20260905175008 | 76 | 136 | 2.6 | 5.2 | 0.00 | 0.00 | 0.00 | 80 | 1018.3 |
| 20260905174508 | 76 | 118 | 1.7 | 5.2 | 0.00 | 0.00 | 0.00 | 80 | 1018.4 |